This demonstration page uses our WeatherBlox Daily Observations layout. Learn more.

Left ArrowRight Arrow

41.55636, -103.73856

Hourly Observations for October 16, 2015

Temp ( °F °C ) Dew Point ( °F °C ) Humidity (%) Winds ( mph kmh ) Pressure ( in mb ) Visibility ( mi km ) Precip ( " mm )
12:53 am 00:53 Clear 38 3.3 27 -2.8 65 65 E 8 13 30.46 1032 10 16.0934 0 0
1:53 am 01:53 Clear 36 2.2 27 -2.8 70 70 E 6 9 30.47 1032 10 16.0934 0 0
2:53 am 02:53 Clear 36 2.2 27 -2.8 70 70 E 7 11 30.47 1032 10 16.0934 0 0
3:53 am 03:53 Clear 34 1.1 26 -3.3 73 73 E 5 7 30.47 1032 10 16.0934 0 0
4:53 am 04:53 Clear 34 1.1 26 -3.3 73 73 ESE 7 11 30.45 1031 10 16.0934 0 0
5:53 am 05:53 Clear 35 1.7 26 -3.3 70 70 E 10 17 30.46 1032 10 16.0934 0 0
6:53 am 06:53 Clear 36 2.2 26 -3.3 67 67 E 13 20 30.46 1032 10 16.0934 0 0
7:53 am 07:53 Sunny 37 2.8 27 -2.8 67 67 ESE 12 19 30.45 1031 10 16.0934 0 0
8:53 am 08:53 Sunny 42 5.6 28 -2.2 58 58 ESE 18 30 30.42 1030 10 16.0934 0 0
9:53 am 09:53 Sunny 48 8.9 29 -1.7 48 48 ESE 15 24 30.37 1029 10 16.0934 0 0
10:53 am 10:53 Sunny 58 14.4 27 -2.8 31 31 S 13 20 30.31 1027 10 16.0934 0 0
11:53 am 11:53 Sunny 62 16.7 28 -2.2 28 28 S 16 26 30.29 1026 10 16.0934 0 0.0254
12:53 pm 12:53 Sunny 66 18.9 28 -2.2 24 24 S 9 15 30.24 1024 10 16.0934 0 0
1:53 pm 13:53 Sunny 69 20.6 27 -2.8 21 21 SSE 15 24 30.19 1022 10 16.0934 0 0
2:53 pm 14:53 Sunny 71 21.7 29 -1.7 21 21 SSW 10 17 30.17 1022 10 16.0934 0 0
3:53 pm 15:53 Sunny 71 21.7 27 -2.8 19 19 S 9 15 30.15 1021 10 16.0934 0 0
4:53 pm 16:53 Sunny 70 21.1 29 -1.7 22 22 SE 9 15 30.14 1021 10 16.0934 0 0
5:53 pm 17:53 Sunny 62 16.7 33 0.6 34 34 ESE 8 13 30.16 1021 10 16.0934 0 0
6:53 pm 18:53 Clear 52 11.1 32 0 47 47 E 8 13 30.19 1022 10 16.0934 0 0
7:53 pm 19:53 Clear 51 10.6 31 -0.6 46 46 ESE 9 15 30.2 1023 10 16.0934 0 0
8:53 pm 20:53 Clear 48 8.9 30 -1.1 50 50 E 9 15 30.21 1023 10 16.0934 0 0
9:53 pm 21:53 Clear 48 8.9 30 -1.1 50 50 E 10 17 30.2 1023 10 16.0934 0 0
10:53 pm 22:53 Clear 46 7.8 30 -1.1 54 54 E 9 15 30.18 1022 10 16.0934 0 0
11:53 pm 23:53 Clear 43 6.1 29 -1.7 58 58 E 8 13 30.18 1022 10 16.0934 0 0

Powered by AerisWeather